Location: Donald C. Martin Observatory
(38.3885°N, 82.3916°W)
Time: 08:28:16
(UTC-04:00)

Daily predictions for brighter satellites

Satellite Brightness Start Highest point End
(mag) Time Altitude Azimuth Time Altitude Azimuth Time Altitude Azimuth
Cosmos 1048 Rocket 4.1 21:22:34 10° S 21:27:49 68° ESE 21:33:10 10° NNE
Resurs 01 Rocket 1.6 21:23:36 10° SSE 21:28:00 77° ENE 21:32:26 10° N
ERS-2 2.3 21:27:16 10° SSE 21:30:52 59° ENE 21:34:29 10° N
USA 186 2.8 21:28:00 10° S 21:31:06 44° W 21:34:01 10° NNW
SJ-11-01 4.3 21:26:33 10° SSE 21:31:18 84° ENE 21:36:04 10° N
OAO 3 Rocket 3.4 21:26:56 10° WSW 21:31:50 59° S 21:36:41 10° E
Cosmos 1825 Rocket 3.6 21:33:43 10° S 21:38:09 69° E 21:42:35 10° NNE
Cosmos 1943 4.3 21:33:17 10° NW 21:38:35 43° WSW 21:43:51 10° S
SL-8 R/B 3.7 21:34:15 10° SW 21:39:05 87° SE 21:43:56 10° ENE
Cosmos 2278 Rocket 3.8 21:37:46 10° SE 21:40:48 15° E 21:43:50 10° ENE
ARGOS 3.8 21:36:45 10° SE 21:41:46 40° ENE 21:46:48 10° N
Cosmos 1315 Rocket 2.8 21:39:01 10° S 21:43:02 69° E 21:47:07 10° NNE
Cosmos 1953 4.3 21:42:17 10° NNW 21:45:46 29° W 21:49:15 10° SSW
Spot 2 Rocket 3.5 21:43:46 10° SSE 21:48:48 90° ENE 21:53:54 10° NNW
Cosmos 1420 Rocket 4.4 21:47:28 10° NNW 21:52:35 62° WSW 21:57:41 10° S
Cosmos 1452 Rocket 4.2 21:48:01 10° NNW 21:53:10 53° WSW 21:58:17 10° S
Cosmos 1844 Rocket 2.7 21:51:25 10° SSW 21:57:03 72° ESE 22:02:42 10° NNE
CZ-4B DEB 4.5 21:54:23 11° SSE 21:57:39 68° ENE 22:01:06 10° N
COSMOS 2406 4.1 21:54:47 10° N 22:00:03 36° ENE 22:04:22 14° ESE
Cosmos 1844 3.7 21:57:49 10° S 22:03:23 62° ESE 22:09:05 10° NNE
SL-08 RB Rocket 4.2 22:01:15 14° SE 22:04:59 47° ENE 22:09:28 10° N
CZ-3C R/B 3.9 22:02:37 10° SW 22:06:10 12° SSW 22:08:29 10° S
Cosmos 1238 Rocket 2.1 22:04:27 10° S 22:07:23 80° W 22:10:26 10° N
ATLAS 3B R/B 3.4 22:01:32 10° NNW 22:07:43 39° NE 22:12:52 14° ESE
Cosmos 2285 Rocket 4.2 22:02:09 10° SSW 22:08:28 76° WNW 22:14:48 10° NNE
SPOT 5 4.3 22:06:25 15° ESE 22:09:42 27° ENE 22:14:05 10° N
Cosmos 1110 Rocket 4.3 22:04:49 10° N 22:09:51 51° ENE 22:13:32 18° SE
USA 238 DEB 4.1 22:05:00 10° NNW 22:12:02 57° NE 22:17:40 17° SE
USA 238 4.1 22:05:06 10° NNW 22:12:08 56° NE 22:17:45 17° SE
Cosmos 2084 3.1 22:09:45 10° NW 22:13:36 86° SW 22:16:07 21° SSE
ATLAS 5 CENTAUR R/B 3.2 22:14:24 16° ESE 22:14:24 16° ESE 22:17:15 10° ENE
Lacrosse 5 3.6 22:10:05 10° WSW 22:14:45 36° NW 22:19:26 10° NNE
Cosmos 1346 Rocket 2.8 22:11:59 10° N 22:16:00 80° E 22:19:03 17° SSE
Cosmos-2242 3.0 22:13:27 10° N 22:17:52 82° E 22:21:20 16° S
S3M 4.3 22:15:36 13° SSE 22:20:57 49° E 22:27:05 10° NNE
Meteor 1-24 Rocket 4.1 22:15:11 10° SSW 22:21:12 75° W 22:27:14 10° N
Cosmos 1331 Rocket 4.2 22:17:09 10° N 22:22:18 59° ENE 22:25:39 22° SE
Cosmos 494 Rocket 3.9 22:17:15 10° SSW 22:22:29 84° ESE 22:27:46 10° NNE
H-2A R/B 2.1 22:18:45 16° SSE 22:23:00 78° ENE 22:28:24 10° N
SPOT 1/Viking Rocket 4.4 22:20:08 19° ESE 22:23:06 34° ENE 22:27:43 10° N
Timation 1 Rocket 4.5 22:18:48 10° SSW 22:24:45 80° WNW 22:30:45 10° NNE
Cosmos 2082 Rocket 4.3 22:26:13 10° NNE 22:29:21 15° NE 22:32:27 10° E
Helios 1A 3.9 22:28:25 23° ESE 22:30:13 33° ENE 22:34:00 10° N
Cosmos 1626 4.2 22:31:41 13° E 22:31:41 13° E 22:33:14 10° ENE
Helios 1B rocket 3.5 22:29:42 10° NE 22:33:08 25° E 22:33:41 24° ESE
Centaur D-1AR AC-36 4.2 22:27:53 10° WSW 22:36:00 17° SW 22:38:59 13° S
Cosmos 1908 3.1 22:32:09 10° N 22:36:02 89° W 22:38:07 26° S
ATLAS 2AS CENTAUR R/B 3.7 22:29:40 10° SW 22:37:21 60° NW 22:45:24 10° NNE
Cosmos 1842 Rocket 4.0 22:33:17 10° N 22:37:28 45° E 22:39:11 30° SE
CZ-2C R/B 4.2 22:35:48 10° NE 22:39:06 16° E 22:39:35 16° E
Cosmos 1340 2.8 22:37:32 10° N 22:41:18 58° E 22:42:33 37° SE
CSL-04 DEB 4.2 22:40:29 32° SSE 22:42:12 74° ENE 22:46:08 10° N
SEDSat Delta rocket 4.1 22:38:55 10° SW 22:43:20 28° SSE 22:43:33 27° SSE
Cosmos 1553 Rocket 3.9 22:37:48 12° S 22:43:33 87° E 22:49:38 10° N
Landsat 7 4.4 22:42:27 28° ESE 22:44:27 42° ENE 22:48:57 10° N
MetOp-B 4.5 22:43:43 18° S 22:47:40 63° WSW 22:53:00 10° NNW
ERS-1 Rocket 3.0 22:46:44 25° S 22:49:46 81° WSW 22:54:50 10° NNW
Cosmos 1302 Rocket 4.2 22:46:04 10° N 22:51:17 59° ENE 22:53:36 32° SE
DMSP B5D2-2 4.0 22:47:17 10° NNE 22:52:33 88° ESE 22:56:34 17° SSW
Cosmos 1674 4.0 22:50:23 10° SSW 22:53:58 38° W 22:57:35 10° N
Cosmos 1300 2.9 22:57:13 10° N 23:00:58 51° E 23:01:28 47° ESE
Cosmos 2251 Rocket 3.5 22:56:52 13° SSW 23:01:38 86° WNW 23:06:59 10° NNE
Meteor 2-10 4.2 22:56:23 10° NNW 23:01:52 80° W 23:04:53 28° S
USA 215 4.1 22:58:50 21° S 23:02:36 37° SW 23:08:36 10° WNW
Terra 2.4 23:02:30 34° ESE 23:03:53 43° ENE 23:08:23 10° N
Cosmos 2315 Rocket 4.4 23:02:11 31° SE 23:04:34 44° E 23:10:33 10° NNE
Cosmos 1386 Rocket 4.4 22:58:30 10° N 23:04:34 73° E 23:07:22 33° SSE
RESURS DK-1 4.0 23:06:04 20° ENE 23:06:04 20° ENE 23:08:06 10° NE
Cosmos 1726 2.8 23:02:15 10° NNW 23:05:55 50° W 23:07:13 33° SSW
Okean 3 Rocket 4.4 23:06:52 33° E 23:07:01 33° E 23:10:56 10° NNE
Cosmos 2221 2.8 23:03:14 10° N 23:07:27 50° E 23:08:10 44° ESE
H-2A R/B 3.9 23:09:34 29° SSE 23:10:25 30° SE 23:30:05 10° E
NOSS 2-2 (E) 3.1 23:11:47 56° S 23:12:27 71° ESE 23:16:40 10° NE
NOSS 3-4 (A) 3.4 23:08:32 10° SSW 23:14:41 89° WNW 23:21:06 10° NNE
NOSS 3-4 (C) 3.4 23:08:38 10° SSW 23:14:46 90° W 23:21:11 10° NNE
CENTAUR R/B 4.0 23:07:23 10° NNW 23:14:47 40° NE 23:20:12 20° ESE
OAO 3 Rocket 3.6 23:10:25 10° W 23:15:07 44° SSW 23:15:31 43° S
Meteor 1-29 3.2 23:12:49 10° NNE 23:15:43 53° ENE 23:15:43 53° ENE
Cosmos 1328 4.0 23:21:27 52° E 23:21:27 52° E 23:25:08 10° NNE
CZ-2C R/B 3.5 23:19:33 39° SE 23:21:33 60° ENE 23:27:13 10° N
Cosmos 1461 3.7 23:17:01 10° SW 23:21:33 57° WNW 23:26:16 10° NNE
Cosmos 2278 Rocket 2.5 23:18:53 12° SSW 23:24:11 68° WNW 23:29:52 10° NNE
ATLAS 3B CENTAUR R/B 3.7 23:17:25 10° WSW 23:32:54 40° S 23:35:03 36° SSE
IGS 5A 3.4 23:33:19 64° SSW 23:33:48 72° WSW 23:37:58 10° NNW
APEX 3.9 23:31:59 10° NW 23:35:06 42° WSW 23:35:06 42° WSW
Nimbus 7 Rocket 4.3 23:32:55 10° NNE 23:38:58 81° ESE 23:41:14 41° S
NOSS 2-2 (D) 3.6 23:42:34 50° WSW 23:43:22 64° NW 23:47:34 10° NNE
CARTOSAT-1 3.9 23:43:53 52° SW 23:44:25 56° W 23:48:41 10° NNW
SPOT 5 4.2 23:45:39 26° SW 23:47:33 35° W 23:52:20 10° NNW
Cosmos 2369 Rocket 4.2 23:54:56 13° E 23:54:56 13° E 23:56:24 10° ENE
